#timestamp,LO_Frequency,Hit,StdDev 
1685905215.0,286047012.4,Y
1685905215.9,286047012.4,P
1685905235.8,286047001.3,N
1685905255.6,286047001.4,N
1685905275.4,286047001.3,N
1685905295.3,286047001.8,N
1685905315.1,286047006.0,N
1685905335.8,286047002.9,N
1685905355.7,286047003.4,N
1685905375.5,286047007.6,N
1685905395.4,286047007.0,N
1685905415.2,286047006.2,N
1685905435.0,286047006.1,N
1685905435.9,286047006.1,N
1685905455.8,286047006.6,N
1685905475.6,286047009.2,Y
1685905495.4,286047002.5,P
1685905515.3,286047002.5,N
1685905535.1,286047002.1,N
1685905555.9,286047004.3,Y
1685905575.7,286047000.6,P
1685905595.5,286047004.4,P
1685905645.4,286047003.9,E
1685905655.3,286047001.3,N
1685905675.2,286047003.1,P
1685905695.9,286047006.1,P
1685905715.7,286047009.4,Y
1685905735.6,286047008.6,P
1685905755.4,286047010.0,P
1685905775.2,286047013.5,P
1685905795.1,286047015.0,Y
1685905796.0,286047015.0,P
1685905815.8,286047005.4,N
1685905835.7,286047007.3,N
1685905855.5,286047006.7,N
1685905875.3,286047008.1,N
1685905895.2,286047010.6,Y
1685905915.0,286046998.6,P
1685905915.9,286046998.6,N
1685905935.8,286046999.2,N
1685905955.6,286046999.6,N
1685905975.4,286046996.5,N
1685905995.3,286046998.3,N
1685906015.1,286046998.7,N
1685906035.8,286046998.8,N
1685906055.7,286046997.0,N
1685906075.5,286046997.4,N
1685906095.4,286046995.3,N
1685906115.2,286046997.2,N
1685906135.0,286046998.3,N
1685906135.9,286046998.3,N
1685906155.8,286047000.7,N
1685906175.6,286047002.0,N
1685906195.4,286047003.6,N
1685906215.3,286047004.7,N
1685906235.1,286047007.3,N
1685906255.9,286047006.7,N
1685906275.7,286047009.1,N
1685906295.5,286047009.4,N
1685906315.4,286047015.5,Y
1685906335.2,286047015.1,P
1685906355.0,286047016.3,N
1685906355.9,286047016.3,N
1685906375.8,286047016.1,N
1685906395.6,286047021.6,Y
1685906415.5,286047010.7,P
1685906435.3,286047012.1,P
1685906455.1,286047013.0,P
1685906475.9,286047015.0,Y
1685906495.7,286047004.2,P
1685906515.5,286047003.2,N
1685906535.4,286047003.7,N
1685906555.2,286047006.0,N
1685906575.1,286047006.7,N
1685906576.0,286047006.7,N
1685906595.8,286047008.1,N
1685906615.6,286047009.3,Y
1685906635.5,286047004.9,P
1685906655.3,286047006.2,P
1685906675.1,286047006.8,P
1685906695.9,286047006.1,Y
1685906715.7,286047001.6,P
1685906735.6,286047003.7,N
1685906755.4,286047005.1,N
1685906775.2,286047004.5,N
1685906795.1,286047007.3,Y
1685906796.0,286047007.3,P
1685906815.8,286047004.2,N
1685906835.7,286047002.0,N
1685906855.5,286047003.7,N
1685906875.3,286047003.3,N
1685906895.2,286047007.0,Y
1685906915.0,286047001.3,P
1685906915.9,286047001.3,N
1685906935.7,286047004.2,P
1685906955.6,286047005.3,Y
1685906975.4,286047001.5,P
1685906995.3,286047004.0,P
1685907015.1,286047005.7,P
1685907016.0,286047005.7,Y
1685907035.8,286047002.1,P
1685907055.7,286047002.0,N
1685907075.5,286047003.6,P
1685907095.4,286047003.2,Y
1685907115.2,286047002.1,P
1685907135.0,286047002.3,P
1685907135.9,286047002.3,P
1685907155.8,286047001.3,Y
1685907175.6,286047000.2,P
1685907195.4,286047002.6,N
1685907215.3,286046999.7,N
1685907235.1,286047002.3,N
1685907255.9,286047002.7,N
1685907275.7,286047000.2,N
1685907295.5,286046999.7,N
1685907315.4,286047000.3,N
1685907335.2,286046999.7,N
1685907355.0,286047000.0,N
1685907355.9,286047000.0,N
1685907375.8,286046998.8,N
1685907395.6,286046996.5,N
1685907415.5,286046996.8,N
1685907435.3,286046996.9,N
1685907455.1,286047001.2,N
1685907475.9,286047002.7,N
1685907495.7,286047001.7,N
1685907515.5,286047003.8,N
1685907535.4,286047003.7,N
1685907555.2,286047005.6,N
1685907575.1,286047004.7,N
1685907576.0,286047004.7,N
1685907595.8,286047005.5,N
1685907615.6,286047002.9,N
1685907635.5,286047003.8,N
1685907655.3,286047003.5,N
1685907675.2,286047003.3,N
1685907695.9,286047000.3,N
1685907715.7,286046998.8,N
1685907735.6,286046998.7,N
1685907755.4,286046998.6,N
1685907775.2,286046997.0,N
1685907795.1,286046997.4,N
1685907796.0,286046997.4,N
1685907815.8,286046996.6,N
1685907835.7,286046997.2,N
1685907855.5,286046997.3,N
1685907875.3,286046997.0,N
1685907895.2,286046998.4,N
1685907915.9,286046999.5,N
1685907935.7,286046997.5,N
1685907955.6,286046997.0,N
1685907975.4,286046997.0,N
1685907995.2,286046998.6,N
1685908015.1,286046999.3,N
1685908016.0,286046999.3,N
1685908035.8,286047000.0,N
1685908055.7,286047000.2,N
1685908075.5,286046999.8,N
1685908095.3,286047004.4,N
1685908115.2,286047005.9,N
1685908135.0,286047005.3,N
1685908135.9,286047005.3,N
1685908155.8,286047005.8,N
1685908175.6,286047003.7,N
1685908195.4,286047004.2,N
1685908215.3,286047001.5,N
1685908235.1,286047002.1,N
1685908255.8,286047004.2,N
1685908275.7,286047004.8,N
1685908295.5,286047005.1,N
1685908315.4,286047005.5,N
1685908335.2,286047005.4,N
1685908355.0,286047005.0,N
1685908355.9,286047005.0,N
1685908375.8,286047007.2,N
1685908395.6,286047009.0,N
1685908415.4,286047007.9,N
1685908435.3,286047008.6,N
1685908455.1,286047010.3,N
1685908475.9,286047009.6,N
1685908495.7,286047010.1,N
1685908515.5,286047012.4,Y
1685908535.4,286047009.1,P
1685908555.2,286047008.8,P
1685908575.0,286047009.0,P
1685908575.9,286047009.0,Y
1685908595.8,286047000.5,P
1685908615.6,286046998.3,N
1685908635.5,286047000.2,N
1685908655.3,286047002.4,N
1685908675.1,286047003.9,N
1685908695.9,286047004.4,N
1685908715.7,286047006.0,N
1685908735.5,286047005.9,N
1685908755.4,286047004.9,N
1685908775.2,286047006.7,N
1685908795.1,286047006.3,N
1685908796.0,286047006.3,N
